T7HHH SBRJ-SBSP

Flight info

Callsign T7HHH
Flight time 0h 41m
Altitude 38000
Route NAXOP UZ45 IBDAL
Aircraft A20N/M-SDE2E3FGHIRWXY/LB1

Departure

Time 2026-05-04 03:42
Airport Santos Dumont Airport (SBRJ)

Arrival

Time 2026-05-04 04:24
Airport Congonhas–Deputado Freitas Nobre Airport (SBSP)
Time Latitude Longitude Altitude Speed Heading
2026-05-04 03:31 -22.91345 -43.16577 22 ft 0 kts 266°
2026-05-04 03:35 -22.91345 -43.16574 22 ft 2 kts 266°
2026-05-04 03:35 -22.91344 -43.16558 22 ft 2 kts 265°
2026-05-04 03:35 -22.91343 -43.16547 22 ft 2 kts 263°
2026-05-04 03:36 -22.91338 -43.16532 22 ft 2 kts 236°
2026-05-04 03:36 -22.91328 -43.16520 22 ft 2 kts 216°
2026-05-04 03:36 -22.91315 -43.16512 22 ft 2 kts 195°
2026-05-04 03:36 -22.91304 -43.16510 22 ft 0 kts 180°
2026-05-04 03:37 -22.91297 -43.16511 22 ft 0 kts 177°
2026-05-04 03:39 -22.91303 -43.16510 22 ft 2 kts 177°
2026-05-04 03:40 -22.91337 -43.16509 22 ft 6 kts 177°
2026-05-04 03:40 -22.91392 -43.16502 22 ft 8 kts 162°
2026-05-04 03:40 -22.91446 -43.16456 22 ft 10 kts 136°
2026-05-04 03:40 -22.91505 -43.16393 22 ft 12 kts 135°
2026-05-04 03:41 -22.91572 -43.16324 22 ft 14 kts 140°
2026-05-04 03:41 -22.91634 -43.16265 22 ft 5 kts 128°
2026-05-04 03:41 -22.91616 -43.16254 22 ft 0 kts 360°
2026-05-04 03:42 -22.91481 -43.16262 22 ft 61 kts 355°
2026-05-04 03:42 -22.90761 -43.16310 24 ft 143 kts 356°
2026-05-04 03:42 -22.89695 -43.16376 704 ft 154 kts 357°
2026-05-04 03:42 -22.88675 -43.16272 1601 ft 154 kts 20°
2026-05-04 03:43 -22.87756 -43.15703 2341 ft 160 kts 47°
2026-05-04 03:43 -22.87377 -43.14570 2953 ft 173 kts 98°
2026-05-04 03:43 -22.87939 -43.13393 3573 ft 192 kts 139°
2026-05-04 03:43 -22.89242 -43.12899 4188 ft 218 kts 183°
2026-05-04 03:44 -22.90748 -43.13412 4960 ft 238 kts 206°
2026-05-04 03:44 -22.92254 -43.14319 5641 ft 262 kts 210°
2026-05-04 03:44 -22.93951 -43.15396 5747 ft 308 kts 210°
2026-05-04 03:44 -22.95914 -43.16608 6428 ft 329 kts 210°
2026-05-04 03:45 -22.97888 -43.17789 7811 ft 325 kts 210°
2026-05-04 03:45 -22.99845 -43.18941 9070 ft 325 kts 210°
2026-05-04 03:45 -23.01864 -43.20123 9794 ft 342 kts 210°
2026-05-04 03:45 -23.04002 -43.21373 10394 ft 361 kts 210°
2026-05-04 03:46 -23.06288 -43.22702 11061 ft 376 kts 210°
2026-05-04 03:46 -23.08590 -43.24037 11957 ft 381 kts 210°
2026-05-04 03:46 -23.10949 -43.25402 12895 ft 384 kts 210°
2026-05-04 03:46 -23.13292 -43.26756 13771 ft 388 kts 210°
2026-05-04 03:47 -23.15685 -43.28138 14639 ft 390 kts 210°
2026-05-04 03:47 -23.18079 -43.29520 15509 ft 392 kts 211°
2026-05-04 03:47 -23.20477 -43.30908 16344 ft 393 kts 211°
2026-05-04 03:47 -23.22912 -43.32319 17139 ft 395 kts 211°
2026-05-04 03:48 -23.25323 -43.33720 17905 ft 397 kts 212°
2026-05-04 03:48 -23.27776 -43.35145 18670 ft 400 kts 212°
2026-05-04 03:48 -23.30196 -43.36571 19410 ft 401 kts 214°
2026-05-04 03:48 -23.32352 -43.38462 20134 ft 397 kts 230°
2026-05-04 03:49 -23.33908 -43.40933 20884 ft 395 kts 245°
2026-05-04 03:49 -23.34802 -43.43735 21631 ft 396 kts 255°
2026-05-04 03:49 -23.35488 -43.46642 22331 ft 399 kts 256°
2026-05-04 03:49 -23.36164 -43.49533 22998 ft 402 kts 256°
2026-05-04 03:50 -23.36860 -43.52502 23668 ft 404 kts 256°
2026-05-04 03:50 -23.37549 -43.55442 24302 ft 406 kts 256°
2026-05-04 03:50 -23.38241 -43.58395 24925 ft 407 kts 256°
2026-05-04 03:50 -23.38941 -43.61388 25530 ft 408 kts 257°
2026-05-04 03:51 -23.39645 -43.64400 26090 ft 410 kts 257°
2026-05-04 03:51 -23.40342 -43.67390 26625 ft 411 kts 257°
2026-05-04 03:51 -23.41045 -43.70411 27128 ft 413 kts 258°
2026-05-04 03:51 -23.41749 -43.73428 27680 ft 412 kts 258°
2026-05-04 03:52 -23.42447 -43.76418 28374 ft 407 kts 258°
2026-05-04 03:52 -23.43134 -43.79373 29088 ft 402 kts 258°
2026-05-04 03:52 -23.43812 -43.82292 29787 ft 398 kts 258°
2026-05-04 03:52 -23.44485 -43.85189 30402 ft 396 kts 259°
2026-05-04 03:53 -23.45161 -43.88106 30961 ft 396 kts 259°
2026-05-04 03:53 -23.45826 -43.90990 31525 ft 394 kts 259°
2026-05-04 03:53 -23.46491 -43.93859 32082 ft 393 kts 259°
2026-05-04 03:53 -23.47154 -43.96726 32598 ft 392 kts 259°
2026-05-04 03:54 -23.47824 -43.99626 33131 ft 391 kts 259°
2026-05-04 03:54 -23.48483 -44.02477 33696 ft 389 kts 259°
2026-05-04 03:54 -23.49134 -44.05305 34257 ft 387 kts 259°
2026-05-04 03:54 -23.49782 -44.08122 34832 ft 384 kts 259°
2026-05-04 03:55 -23.50423 -44.10914 35389 ft 381 kts 259°
2026-05-04 03:55 -23.51059 -44.13679 35947 ft 377 kts 259°
2026-05-04 03:55 -23.51691 -44.16423 36419 ft 375 kts 259°
2026-05-04 03:55 -23.52323 -44.19174 36781 ft 375 kts 259°
2026-05-04 03:56 -23.52957 -44.21927 37078 ft 376 kts 259°
2026-05-04 03:56 -23.53590 -44.24696 37368 ft 377 kts 259°
2026-05-04 03:56 -23.54222 -44.27459 37648 ft 378 kts 258°
2026-05-04 03:56 -23.54864 -44.30254 37906 ft 378 kts 259°
2026-05-04 03:57 -23.55497 -44.33023 38126 ft 379 kts 259°
2026-05-04 03:57 -23.56770 -44.38592 38160 ft 380 kts 258°
2026-05-04 03:58 -23.58675 -44.46943 38163 ft 380 kts 259°
2026-05-04 03:58 -23.59948 -44.52533 38162 ft 381 kts 259°
2026-05-04 03:59 -23.61219 -44.58130 38164 ft 380 kts 259°
2026-05-04 03:59 -23.62480 -44.63691 38163 ft 381 kts 259°
2026-05-04 04:00 -23.63748 -44.69296 38162 ft 380 kts 259°
2026-05-04 04:00 -23.65008 -44.74877 38162 ft 380 kts 259°
2026-05-04 04:01 -23.66265 -44.80442 38160 ft 379 kts 259°
2026-05-04 04:01 -23.67527 -44.86051 38161 ft 380 kts 259°
2026-05-04 04:02 -23.68775 -44.91604 38157 ft 380 kts 259°
2026-05-04 04:02 -23.70029 -44.97194 38157 ft 379 kts 259°
2026-05-04 04:03 -23.71277 -45.02772 38154 ft 380 kts 259°
2026-05-04 04:03 -23.72527 -45.08367 38149 ft 380 kts 259°
2026-05-04 04:04 -23.73770 -45.13935 38020 ft 375 kts 259°
2026-05-04 04:04 -23.74384 -45.16687 37443 ft 372 kts 259°
2026-05-04 04:04 -23.74989 -45.19406 36617 ft 372 kts 259°
2026-05-04 04:05 -23.75593 -45.22121 35760 ft 373 kts 259°
2026-05-04 04:05 -23.76206 -45.24886 34837 ft 374 kts 259°
2026-05-04 04:05 -23.76815 -45.27646 33814 ft 378 kts 259°
2026-05-04 04:05 -23.77428 -45.30430 32754 ft 382 kts 259°
2026-05-04 04:06 -23.78043 -45.33225 31728 ft 386 kts 259°
2026-05-04 04:06 -23.78665 -45.36085 30700 ft 389 kts 260°
2026-05-04 04:06 -23.79185 -45.38939 29685 ft 390 kts 262°
2026-05-04 04:06 -23.79585 -45.41848 28634 ft 391 kts 263°
2026-05-04 04:07 -23.79867 -45.44802 27379 ft 398 kts 265°
2026-05-04 04:07 -23.80046 -45.47809 25810 ft 411 kts 266°
2026-05-04 04:07 -23.80213 -45.50908 24673 ft 411 kts 266°
2026-05-04 04:07 -23.80377 -45.53986 24340 ft 400 kts 266°
2026-05-04 04:08 -23.80538 -45.56999 24099 ft 400 kts 266°
2026-05-04 04:08 -23.80696 -45.60010 23854 ft 400 kts 266°
2026-05-04 04:08 -23.80853 -45.63060 23614 ft 400 kts 266°
2026-05-04 04:08 -23.80710 -45.66076 23285 ft 397 kts 278°
2026-05-04 04:09 -23.79928 -45.68930 22552 ft 399 kts 290°
2026-05-04 04:09 -23.78622 -45.71614 21643 ft 401 kts 297°
2026-05-04 04:09 -23.77321 -45.74290 20823 ft 395 kts 291°
2026-05-04 04:09 -23.76308 -45.77016 20067 ft 391 kts 289°
2026-05-04 04:10 -23.75364 -45.79762 19286 ft 387 kts 288°
2026-05-04 04:10 -23.74447 -45.82499 18500 ft 384 kts 288°
2026-05-04 04:10 -23.73546 -45.85229 17731 ft 380 kts 288°
2026-05-04 04:10 -23.72674 -45.87910 17004 ft 377 kts 288°
2026-05-04 04:11 -23.71805 -45.90597 16263 ft 374 kts 288°
2026-05-04 04:11 -23.70951 -45.93237 15528 ft 371 kts 288°
2026-05-04 04:11 -23.70095 -45.95893 14779 ft 369 kts 288°
2026-05-04 04:11 -23.69255 -45.98497 14046 ft 366 kts 288°
2026-05-04 04:12 -23.68419 -46.01080 13334 ft 363 kts 288°
2026-05-04 04:12 -23.67578 -46.03688 12598 ft 361 kts 288°
2026-05-04 04:12 -23.66766 -46.06233 12133 ft 359 kts 288°
2026-05-04 04:12 -23.65945 -46.08836 11788 ft 360 kts 288°
2026-05-04 04:13 -23.65148 -46.11389 11451 ft 360 kts 288°
2026-05-04 04:13 -23.64349 -46.13966 11099 ft 359 kts 288°
2026-05-04 04:13 -23.63559 -46.16533 10747 ft 358 kts 288°
2026-05-04 04:13 -23.62772 -46.19123 10392 ft 356 kts 288°
2026-05-04 04:14 -23.62005 -46.21667 10040 ft 355 kts 288°
2026-05-04 04:14 -23.61235 -46.24230 9680 ft 354 kts 288°
2026-05-04 04:14 -23.60479 -46.26762 9314 ft 353 kts 288°
2026-05-04 04:14 -23.59727 -46.29302 8948 ft 351 kts 288°
2026-05-04 04:15 -23.58987 -46.31822 8581 ft 350 kts 288°
2026-05-04 04:15 -23.58248 -46.34357 8209 ft 350 kts 288°
2026-05-04 04:15 -23.57520 -46.36884 7842 ft 349 kts 288°
2026-05-04 04:15 -23.56805 -46.39403 7467 ft 347 kts 288°
2026-05-04 04:16 -23.56100 -46.41907 7096 ft 344 kts 288°
2026-05-04 04:16 -23.55427 -46.44324 6821 ft 329 kts 288°
2026-05-04 04:16 -23.54785 -46.46655 6572 ft 314 kts 288°
2026-05-04 04:16 -23.54177 -46.48888 6324 ft 301 kts 288°
2026-05-04 04:17 -23.53594 -46.51047 6075 ft 290 kts 288°
2026-05-04 04:17 -23.53035 -46.53112 5874 ft 278 kts 288°
2026-05-04 04:17 -23.52498 -46.55089 5747 ft 265 kts 288°
2026-05-04 04:17 -23.51990 -46.56955 5620 ft 253 kts 288°
2026-05-04 04:18 -23.51500 -46.58754 5491 ft 242 kts 288°
2026-05-04 04:18 -23.51032 -46.60475 5363 ft 232 kts 288°
2026-05-04 04:18 -23.50586 -46.62112 5236 ft 223 kts 288°
2026-05-04 04:18 -23.50149 -46.63705 5107 ft 215 kts 288°
2026-05-04 04:19 -23.49724 -46.65248 4975 ft 207 kts 288°
2026-05-04 04:19 -23.49319 -46.66710 4844 ft 200 kts 288°
2026-05-04 04:19 -23.48919 -46.68158 4821 ft 198 kts 288°
2026-05-04 04:19 -23.48758 -46.69628 4689 ft 200 kts 262°
2026-05-04 04:20 -23.49365 -46.70973 4640 ft 200 kts 233°
2026-05-04 04:20 -23.50254 -46.72138 4633 ft 199 kts 224°
2026-05-04 04:20 -23.51428 -46.72934 4628 ft 198 kts 200°
2026-05-04 04:20 -23.52759 -46.73028 4604 ft 186 kts 162°
2026-05-04 04:21 -23.53778 -46.72346 4476 ft 166 kts 136°
2026-05-04 04:21 -23.54612 -46.71527 4261 ft 155 kts 136°
2026-05-04 04:21 -23.55426 -46.70803 4060 ft 145 kts 140°
2026-05-04 04:21 -23.56185 -46.70179 3908 ft 130 kts 141°
2026-05-04 04:22 -23.56902 -46.69644 3732 ft 121 kts 143°
2026-05-04 04:22 -23.57617 -46.69142 3592 ft 121 kts 145°
2026-05-04 04:22 -23.58327 -46.68653 3448 ft 120 kts 144°
2026-05-04 04:22 -23.59031 -46.68166 3298 ft 120 kts 144°
2026-05-04 04:23 -23.59739 -46.67674 3133 ft 120 kts 144°
2026-05-04 04:23 -23.60440 -46.67183 2974 ft 120 kts 147°
2026-05-04 04:23 -23.61152 -46.66701 2834 ft 119 kts 144°
2026-05-04 04:23 -23.61853 -46.66215 2678 ft 119 kts 145°
2026-05-04 04:24 -23.62531 -46.65740 2609 ft 100 kts 148°
2026-05-04 04:24 -23.62864 -46.65511 2621 ft 14 kts 149°
2026-05-04 04:24 -23.62926 -46.65534 2622 ft 10 kts 239°
2026-05-04 04:24 -23.62901 -46.65592 2619 ft 11 kts 324°
2026-05-04 04:25 -23.62829 -46.65643 2616 ft 12 kts 330°
2026-05-04 04:25 -23.62784 -46.65690 2614 ft 6 kts 263°
2026-05-04 04:25 -23.62788 -46.65704 2613 ft 2 kts 250°
2026-05-04 04:25 -23.62802 -46.65729 2613 ft 6 kts 237°
2026-05-04 04:26 -23.62815 -46.65752 2612 ft 1 kts 238°
2026-05-04 04:26 -23.62816 -46.65754 2612 ft 0 kts 238°